This demonstration page uses our WeatherBlox Daily Observations layout. Learn more.

Left ArrowRight Arrow

Hourly Observations for May 12, 2017

Temp ( °F °C ) Dew Point ( °F °C ) Humidity (%) Winds ( mph kmh ) Pressure ( in mb ) Visibility ( mi km ) Precip ( " mm )
12:53 am 00:53 Clear 71 21.7 63 17.2 76 76 SW 6 9 29.88 1012 10 16 0.00 0.00
1:53 am 01:53 Clear 70 21.1 63 17.2 79 79 SW 3 6 29.88 1012 10 16 0.00 0.00
2:53 am 02:53 Clear 69 20.6 64 17.8 84 84 S 5 7 29.87 1011 10 16 0.00 0.00
3:53 am 03:53 Clear 68 20 64 17.8 87 87 Calm 29.84 1011 10 16 0.00 0.00
4:53 am 04:53 Clear 66 18.9 64 17.8 93 93 SSW 3 6 29.84 1011 10 16 0.00 0.00
5:53 am 05:53 Clear 64 17.8 64 17.8 100 100 Calm 29.83 1010 10 16 0.00 0.00
6:53 am 06:53 Sunny with Mist and Fog 63 17.2 63 17.2 100 100 Calm 29.83 1010 5 8 0.00 0.00
7:53 am 07:53 Sunny 65 18.3 64 17.8 97 97 SW 6 9 29.84 1010 9 14 0.00 0.00
8:53 am 08:53 Sunny 67 19.4 65 18.3 93 93 SW 8 13 29.84 1011 10 16 0.00 0.00
9:53 am 09:53 Sunny 70 21.1 65 18.3 84 84 SW 6 9 29.82 1010 10 16 0.00 0.00
10:53 am 10:53 Sunny 72 22.2 66 18.9 82 82 SSW 7 11 29.83 1010 10 16 0.00 0.00
11:53 am 11:53 Mostly Sunny 75 23.9 66 18.9 74 74 SSW 9 15 29.83 1010 10 16 0.00 0.00
12:53 pm 12:53 Partly Cloudy 79 26.1 63 17.2 58 58 SSW 10 17 29.81 1010 10 16 0.00 0.00
1:53 pm 13:53 Mostly Cloudy 79 26.1 62 16.7 56 56 W 8 13 29.80 1009 10 16 0.00 0.00
2:53 pm 14:53 Partly Cloudy 81 27.2 63 17.2 54 54 VRB 7 11 29.76 1008 10 16 0.00 0.00
3:53 pm 15:53 Partly Cloudy 81 27.2 61 16.1 51 51 WSW 12 19 29.75 1007 10 16 0.00 0.00
4:53 pm 16:53 Mostly Sunny 81 27.2 64 17.8 57 57 WSW 9 15 29.74 1007 10 16 0.00 0.00
5:25 pm 17:25 Partly Cloudy with Nearby Thunderstorms 79 26.1 64 17.8 60 60 SW 6 9 29.71 1006 10 16 0.00 0.03
5:53 pm 17:53 Partly Cloudy with Nearby Thunderstorms 79 26.1 64 17.8 60 60 WNW 10 17 29.75 1007 10 16 0.00 0.03
6:20 pm 18:20 Cloudy with Thunderstorms 66 18.9 62 16.7 87 87 NNW 8 13 29.77 1008 6 10 0.02 0.51
6:35 pm 18:35 Cloudy with Light Rain 64 17.8 64 17.8 100 100 Calm 29.77 1008 4 6 0.13 3.30
6:53 pm 18:53 Mostly Cloudy 66 18.9 64 17.8 93 93 NNW 6 9 29.75 1008 10 16 0.13 3.30
7:53 pm 19:53 Cloudy 67 19.4 65 18.3 93 93 Calm 29.76 1008 10 16 0.00 0.00
8:53 pm 20:53 Cloudy 67 19.4 66 18.9 97 97 Calm 29.75 1008 10 16 0.00 0.00
9:53 pm 21:53 Mostly Cloudy 66 18.9 66 18.9 100 100 Calm 29.76 1008 10 16 0.00 0.00
10:53 pm 22:53 Mostly Clear 65 18.3 65 18.3 100 100 Calm 29.77 1008 9 14 0.00 0.00
11:53 pm 23:53 Partly Cloudy 64 17.8 64 17.8 100 100 Calm 29.75 1008 7 11 0.00 0.00

Powered by AerisWeather